| time (UTC) | temp F | wind direction | speed MPH | gust MPH | rain 1hr in | rain 24hr in | rain mn in | humidity % | barometer mb |
| 20260509061101 | 50 | 97 | 4.0 | 6.0 | 0.00 | 0.00 | 0.00 | 42 | 1028.9 |
| 20260509060039 | 50 | 88 | 4.0 | 7.0 | 0.00 | 0.00 | 0.00 | 43 | 1028.9 |
| 20260509055038 | 49 | 76 | 4.0 | 6.0 | 0.00 | 0.00 | 0.00 | 43 | 1028.8 |
| 20260509054036 | 49 | 91 | 5.0 | 7.0 | 0.00 | 0.00 | 0.00 | 43 | 1028.8 |
| 20260509053035 | 49 | 85 | 5.0 | 7.0 | 0.00 | 0.00 | 0.00 | 43 | 1028.8 |
| 20260509052035 | 48 | 91 | 5.0 | 7.0 | 0.00 | 0.00 | 0.00 | 44 | 1028.8 |
| 20260509051033 | 48 | 93 | 4.0 | 6.0 | 0.00 | 0.00 | 0.00 | 44 | 1028.8 |
| 20260509050032 | 47 | 87 | 4.0 | 6.0 | 0.00 | 0.00 | 0.00 | 46 | 1028.8 |
| 20260509045032 | 46 | 91 | 4.0 | 6.0 | 0.00 | 0.00 | 0.00 | 47 | 1028.8 |
| 20260509044031 | 47 | 85 | 4.0 | 6.0 | 0.00 | 0.00 | 0.00 | 46 | 1028.7 |
| 20260509043030 | 47 | 81 | 4.0 | 6.0 | 0.00 | 0.00 | 0.00 | 44 | 1028.7 |
| 20260509042031 | 47 | 76 | 5.0 | 7.0 | 0.00 | 0.00 | 0.00 | 43 | 1028.7 |
| 20260509041029 | 46 | 75 | 4.0 | 8.0 | 0.00 | 0.00 | 0.00 | 44 | 1028.6 |
| 20260509040028 | 45 | 71 | 5.0 | 8.0 | 0.00 | 0.00 | 0.00 | 45 | 1028.6 |
| 20260509034047 | 45 | 72 | 3.0 | 5.0 | 0.00 | 0.00 | 0.00 | 47 | 1028.5 |
| 20260509033025 | 42 | 63 | 3.0 | 4.0 | 0.00 | 0.00 | 0.00 | 54 | 1028.5 |
| 20260509032024 | 45 | 65 | 3.0 | 4.0 | 0.00 | 0.00 | 0.00 | 45 | 1028.4 |
| 20260509031022 | 45 | 72 | 3.0 | 4.0 | 0.00 | 0.00 | 0.00 | 43 | 1028.4 |
| 20260509030043 | 44 | 76 | 2.0 | 3.0 | 0.00 | 0.00 | 0.00 | 44 | 1028.3 |
| 20260509025023 | 43 | 78 | 2.0 | 4.0 | 0.00 | 0.00 | 0.00 | 46 | 1028.2 |
| 20260509024021 | 42 | 78 | 4.0 | 5.0 | 0.00 | 0.00 | 0.00 | 48 | 1028.2 |
| 20260509023059 | 42 | 84 | 4.0 | 5.0 | 0.00 | 0.00 | 0.00 | 49 | 1028.2 |
| 20260509022018 | 42 | 95 | 3.0 | 4.0 | 0.00 | 0.00 | 0.00 | 49 | 1028.2 |
| 20260509021017 | 42 | 95 | 3.0 | 4.0 | 0.00 | 0.00 | 0.00 | 50 | 1028.1 |
| 20260509020016 | 40 | 103 | 4.0 | 5.0 | 0.00 | 0.00 | 0.00 | 57 | 1028.1 |
| 20260509015045 | 40 | 103 | 4.0 | 6.0 | 0.00 | 0.00 | 0.00 | 56 | 1028.1 |
| 20260509014105 | 42 | 87 | 4.0 | 5.0 | 0.00 | 0.00 | 0.00 | 50 | 1028.0 |
| 20260509013044 | 43 | 90 | 4.0 | 5.0 | 0.00 | 0.00 | 0.00 | 48 | 1028.0 |
| 20260509012103 | 42 | 88 | 3.0 | 4.0 | 0.00 | 0.00 | 0.00 | 51 | 1027.9 |
| 20260509011041 | 42 | 85 | 4.0 | 5.0 | 0.00 | 0.00 | 0.00 | 53 | 1027.9 |
| 20260509010040 | 43 | 92 | 4.0 | 5.0 | 0.00 | 0.00 | 0.00 | 50 | 1028.0 |
| 20260509005040 | 42 | 89 | 4.0 | 5.0 | 0.00 | 0.00 | 0.00 | 51 | 1027.9 |
| 20260509004039 | 40 | 85 | 4.0 | 6.0 | 0.00 | 0.00 | 0.00 | 59 | 1027.8 |
| 20260509003037 | 40 | 99 | 3.0 | 6.0 | 0.00 | 0.00 | 0.00 | 55 | 1027.8 |
| 20260509002036 | 43 | 77 | 2.0 | 2.0 | 0.00 | 0.00 | 0.00 | 47 | 1027.7 |
| 20260509001037 | 43 | 44 | 2.0 | 3.0 | 0.00 | 0.00 | 0.00 | 47 | 1027.7 |
| 20260509000036 | 43 | 45 | 2.0 | 3.0 | 0.00 | 0.00 | 0.00 | 46 | 1027.7 |
| 20260508235054 | 43 | 66 | 2.0 | 3.0 | 0.00 | 0.00 | 0.00 | 47 | 1027.7 |
| 20260508234032 | 43 | 61 | 2.0 | 4.0 | 0.00 | 0.00 | 0.00 | 50 | 1027.7 |
| 20260508233033 | 42 | 79 | 3.0 | 3.0 | 0.00 | 0.00 | 0.00 | 51 | 1027.6 |
| 20260508232034 | 43 | 102 | 3.0 | 4.0 | 0.00 | 0.00 | 0.00 | 49 | 1027.6 |
| 20260508231052 | 42 | 95 | 4.0 | 5.0 | 0.00 | 0.00 | 0.00 | 57 | 1027.5 |
| 20260508230030 | 40 | 103 | 4.0 | 5.0 | 0.00 | 0.00 | 0.00 | 64 | 1027.5 |
| 20260508225029 | 41 | 116 | 3.0 | 4.0 | 0.00 | 0.00 | 0.00 | 56 | 1027.5 |
| 20260508224027 | 42 | 97 | 3.0 | 6.0 | 0.00 | 0.00 | 0.00 | 53 | 1027.4 |
| 20260508223026 | 41 | 98 | 3.0 | 6.0 | 0.00 | 0.00 | 0.00 | 55 | 1027.4 |
| 20260508222045 | 43 | 277 | 2.0 | 6.0 | 0.00 | 0.00 | 0.00 | 48 | 1027.4 |
| 20260508221024 | 42 | 139 | 3.0 | 6.0 | 0.00 | 0.00 | 0.00 | 48 | 1027.4 |
| 20260508220024 | 43 | 117 | 3.0 | 4.0 | 0.00 | 0.00 | 0.00 | 47 | 1027.4 |
| 20260508215023 | 42 | 129 | 2.0 | 3.0 | 0.00 | 0.00 | 0.00 | 50 | 1027.4 |
| 20260508214022 | 46 | 251 | 2.0 | 4.0 | 0.00 | 0.00 | 0.00 | 41 | 1027.4 |
| 20260508213021 | 47 | 263 | 3.0 | 5.0 | 0.00 | 0.00 | 0.00 | 39 | 1027.4 |
| 20260508212040 | 47 | 268 | 4.0 | 5.0 | 0.00 | 0.00 | 0.00 | 39 | 1027.3 |
| 20260508211038 | 48 | 263 | 4.0 | 5.0 | 0.00 | 0.00 | 0.00 | 38 | 1027.3 |
| 20260508210017 | 47 | 267 | 4.0 | 4.0 | 0.00 | 0.00 | 0.00 | 39 | 1027.2 |
| 20260508205018 | 47 | 273 | 3.0 | 6.0 | 0.00 | 0.00 | 0.00 | 39 | 1027.1 |
| 20260508204046 | 48 | 257 | 5.0 | 8.0 | 0.00 | 0.00 | 0.00 | 38 | 1027.1 |
| 20260508203045 | 48 | 242 | 7.0 | 9.0 | 0.00 | 0.00 | 0.00 | 37 | 1027.1 |
| 20260508202044 | 48 | 235 | 6.0 | 8.0 | 0.00 | 0.00 | 0.00 | 37 | 1027.0 |
| 20260508201043 | 47 | 216 | 6.0 | 8.0 | 0.00 | 0.00 | 0.00 | 39 | 1027.0 |
| 20260508200043 | 48 | 195 | 5.0 | 8.0 | 0.00 | 0.00 | 0.00 | 35 | 1027.0 |
| 20260508195041 | 47 | 166 | 4.0 | 6.0 | 0.00 | 0.00 | 0.00 | 39 | 1026.9 |
| 20260508194040 | 46 | 136 | 3.0 | 4.0 | 0.00 | 0.00 | 0.00 | 41 | 1026.7 |
| 20260508193039 | 46 | 120 | 3.0 | 5.0 | 0.00 | 0.00 | 0.00 | 40 | 1026.6 |
| 20260508192038 | 47 | 144 | 3.0 | 5.0 | 0.00 | 0.00 | 0.00 | 40 | 1026.6 |
| 20260508191038 | 48 | 178 | 3.0 | 5.0 | 0.00 | 0.00 | 0.00 | 37 | 1026.5 |
| 20260508190037 | 49 | 188 | 4.0 | 8.0 | 0.00 | 0.00 | 0.00 | 36 | 1026.6 |
| 20260508185035 | 49 | 176 | 5.0 | 8.0 | 0.00 | 0.00 | 0.00 | 36 | 1026.5 |
| 20260508184034 | 49 | 169 | 4.0 | 8.0 | 0.00 | 0.00 | 0.00 | 36 | 1026.6 |
| 20260508183033 | 50 | 167 | 5.0 | 7.0 | 0.00 | 0.00 | 0.00 | 35 | 1026.5 |
| 20260508182032 | 50 | 143 | 4.0 | 6.0 | 0.00 | 0.00 | 0.00 | 35 | 1026.5 |
| 20260508181032 | 51 | 151 | 4.0 | 10.0 | 0.00 | 0.00 | 0.00 | 34 | 1026.3 |
| 20260508180031 | 51 | 157 | 5.0 | 10.0 | 0.00 | 0.00 | 0.00 | 33 | 1026.2 |
| 20260508175030 | 52 | 140 | 5.0 | 9.0 | 0.00 | 0.00 | 0.00 | 32 | 1026.1 |
| 20260508174029 | 53 | 167 | 6.0 | 11.0 | 0.00 | 0.00 | 0.00 | 32 | 1026.0 |
| 20260508173027 | 55 | 94 | 4.0 | 11.0 | 0.00 | 0.00 | 0.00 | 26 | 1025.9 |
| 20260508172026 | 56 | 16 | 5.0 | 7.0 | 0.00 | 0.00 | 0.00 | 19 | 1025.7 |
| 20260508171047 | 56 | 5 | 5.0 | 8.0 | 0.00 | 0.00 | 0.00 | 19 | 1025.7 |
| 20260508170025 | 57 | 53 | 4.0 | 8.0 | 0.00 | 0.00 | 0.00 | 19 | 1025.6 |
| 20260508165024 | 57 | 48 | 5.0 | 10.0 | 0.00 | 0.00 | 0.00 | 19 | 1025.6 |
| 20260508164022 | 57 | 55 | 5.0 | 10.0 | 0.00 | 0.00 | 0.00 | 19 | 1025.5 |
| 20260508163021 | 57 | 39 | 5.0 | 10.0 | 0.00 | 0.00 | 0.00 | 19 | 1025.5 |
| 20260508162022 | 57 | 2 | 5.0 | 10.0 | 0.00 | 0.00 | 0.00 | 19 | 1025.3 |
| 20260508161020 | 57 | 31 | 6.0 | 14.0 | 0.00 | 0.00 | 0.00 | 19 | 1025.2 |
| 20260508160019 | 58 | 356 | 6.0 | 14.0 | 0.00 | 0.00 | 0.00 | 20 | 1025.2 |
| 20260508155018 | 58 | 340 | 6.0 | 11.0 | 0.00 | 0.00 | 0.00 | 19 | 1025.2 |
| 20260508154017 | 58 | 338 | 7.0 | 15.0 | 0.00 | 0.00 | 0.00 | 19 | 1025.2 |
| 20260508153016 | 58 | 318 | 6.0 | 10.0 | 0.00 | 0.00 | 0.00 | 19 | 1025.2 |
| 20260508152045 | 58 | 338 | 8.0 | 15.0 | 0.00 | 0.00 | 0.00 | 19 | 1025.2 |
| 20260508151104 | 57 | 3 | 6.0 | 10.0 | 0.00 | 0.00 | 0.00 | 16 | 1025.2 |
| 20260508150043 | 58 | 352 | 5.0 | 12.0 | 0.00 | 0.00 | 0.00 | 16 | 1025.2 |
| 20260508145123 | 57 | 356 | 9.0 | 15.0 | 0.00 | 0.00 | 0.00 | 16 | 1025.2 |
| 20260508144042 | 58 | 5 | 5.0 | 11.0 | 0.00 | 0.00 | 0.00 | 17 | 1025.3 |
| 20260508143041 | 58 | 13 | 6.0 | 12.0 | 0.00 | 0.00 | 0.00 | 15 | 1025.3 |
| 20260508142100 | 58 | 7 | 7.0 | 16.0 | 0.00 | 0.00 | 0.00 | 18 | 1025.3 |
| 20260508141038 | 58 | 24 | 8.0 | 16.0 | 0.00 | 0.00 | 0.00 | 17 | 1025.3 |
| 20260508140038 | 58 | 8 | 8.0 | 13.0 | 0.00 | 0.00 | 0.00 | 17 | 1025.4 |
| 20260508135056 | 58 | 358 | 6.0 | 12.0 | 0.00 | 0.00 | 0.00 | 19 | 1025.4 |
| 20260508134034 | 58 | 13 | 8.0 | 16.0 | 0.00 | 0.00 | 0.00 | 19 | 1025.4 |
| 20260508133036 | 58 | 32 | 8.0 | 16.0 | 0.00 | 0.00 | 0.00 | 20 | 1025.4 |
| 20260508132056 | 58 | 355 | 8.0 | 15.0 | 0.00 | 0.00 | 0.00 | 20 | 1025.4 |
| 20260508131033 | 58 | 335 | 6.0 | 12.0 | 0.00 | 0.00 | 0.00 | 20 | 1025.4 |
| 20260508130032 | 58 | 325 | 5.0 | 12.0 | 0.00 | 0.00 | 0.00 | 19 | 1025.4 |
| 20260508125031 | 58 | 344 | 6.0 | 11.0 | 0.00 | 0.00 | 0.00 | 19 | 1025.5 |
| 20260508124029 | 58 | 12 | 6.0 | 14.0 | 0.00 | 0.00 | 0.00 | 20 | 1025.5 |
| 20260508123028 | 59 | 5 | 6.0 | 14.0 | 0.00 | 0.00 | 0.00 | 20 | 1025.6 |
| 20260508122027 | 58 | 1 | 8.0 | 14.0 | 0.00 | 0.00 | 0.00 | 20 | 1025.6 |
| 20260508121028 | 57 | 327 | 8.0 | 14.0 | 0.00 | 0.00 | 0.00 | 20 | 1025.6 |
| 20260508120026 | 58 | 344 | 8.0 | 13.0 | 0.00 | 0.00 | 0.00 | 19 | 1025.6 |
| 20260508115026 | 57 | 357 | 9.0 | 15.0 | 0.00 | 0.00 | 0.00 | 20 | 1025.6 |
| 20260508114024 | 58 | 357 | 6.0 | 15.0 | 0.00 | 0.00 | 0.00 | 19 | 1025.7 |
| 20260508113023 | 56 | 330 | 9.0 | 15.0 | 0.00 | 0.00 | 0.00 | 21 | 1025.8 |
| 20260508112022 | 56 | 312 | 7.0 | 14.0 | 0.00 | 0.00 | 0.00 | 21 | 1025.6 |
| 20260508111101 | 56 | 323 | 7.0 | 15.0 | 0.00 | 0.00 | 0.00 | 22 | 1025.7 |
| 20260508110020 | 56 | 354 | 8.0 | 16.0 | 0.00 | 0.00 | 0.00 | 22 | 1025.7 |
| 20260508105019 | 56 | 329 | 8.0 | 16.0 | 0.00 | 0.00 | 0.00 | 22 | 1025.7 |
| 20260508104038 | 56 | 342 | 7.0 | 16.0 | 0.00 | 0.00 | 0.00 | 22 | 1025.8 |
| 20260508103017 | 55 | 336 | 8.0 | 16.0 | 0.00 | 0.00 | 0.00 | 23 | 1025.8 |
| 20260508102046 | 55 | 336 | 8.0 | 18.0 | 0.00 | 0.00 | 0.00 | 23 | 1025.7 |
| 20260508101044 | 55 | 334 | 9.0 | 18.0 | 0.00 | 0.00 | 0.00 | 24 | 1025.7 |
| 20260508100103 | 55 | 335 | 9.0 | 19.0 | 0.00 | 0.00 | 0.00 | 24 | 1025.6 |
| 20260508095041 | 54 | 333 | 10.0 | 19.0 | 0.00 | 0.00 | 0.00 | 25 | 1025.6 |
| 20260508094042 | 54 | 328 | 7.0 | 15.0 | 0.00 | 0.00 | 0.00 | 24 | 1025.6 |
| 20260508093101 | 55 | 335 | 6.0 | 14.0 | 0.00 | 0.00 | 0.00 | 26 | 1025.6 |
| 20260508092100 | 54 | 320 | 7.0 | 16.0 | 0.00 | 0.00 | 0.00 | 28 | 1025.6 |
| 20260508091059 | 53 | 340 | 8.0 | 14.0 | 0.00 | 0.00 | 0.00 | 28 | 1025.6 |
| 20260508090057 | 53 | 1 | 7.0 | 14.0 | 0.00 | 0.00 | 0.00 | 29 | 1025.7 |
| 20260508085036 | 53 | 346 | 7.0 | 14.0 | 0.00 | 0.00 | 0.00 | 28 | 1025.7 |
| 20260508084036 | 53 | 335 | 7.0 | 14.0 | 0.00 | 0.00 | 0.00 | 31 | 1025.7 |
| 20260508083055 | 52 | 352 | 7.0 | 14.0 | 0.00 | 0.00 | 0.00 | 31 | 1025.7 |
| 20260508082034 | 52 | 337 | 8.0 | 14.0 | 0.00 | 0.00 | 0.00 | 33 | 1025.7 |
| 20260508081036 | 53 | 332 | 6.0 | 15.0 | 0.00 | 0.00 | 0.00 | 31 | 1025.7 |
| 20260508080031 | 52 | 327 | 6.0 | 13.0 | 0.00 | 0.00 | 0.00 | 33 | 1025.7 |
| 20260508075031 | 52 | 320 | 7.0 | 13.0 | 0.00 | 0.00 | 0.00 | 34 | 1025.6 |
| 20260508074031 | 50 | 320 | 7.0 | 13.0 | 0.00 | 0.00 | 0.00 | 36 | 1025.5 |
| 20260508073029 | 51 | 334 | 7.0 | 13.0 | 0.00 | 0.00 | 0.00 | 36 | 1025.4 |
| 20260508072028 | 50 | 324 | 7.0 | 12.0 | 0.00 | 0.00 | 0.00 | 37 | 1025.4 |
| 20260508071047 | 49 | 355 | 7.0 | 12.0 | 0.00 | 0.00 | 0.00 | 38 | 1025.3 |
| 20260508070026 | 49 | 324 | 7.0 | 12.0 | 0.00 | 0.00 | 0.00 | 39 | 1025.3 |
| 20260508065044 | 49 | 342 | 7.0 | 13.0 | 0.00 | 0.00 | 0.00 | 40 | 1025.2 |
| 20260508064025 | 48 | 339 | 7.0 | 11.0 | 0.00 | 0.00 | 0.00 | 41 | 1025.1 |
| 20260508063044 | 48 | 344 | 7.0 | 12.0 | 0.00 | 0.00 | 0.00 | 42 | 1025.0 |
| 20260508062043 | 47 | 338 | 7.0 | 11.0 | 0.00 | 0.00 | 0.00 | 43 | 1024.9 |